This demonstration page uses our WeatherBlox Daily Observations layout. Learn more.

38.88101, -77.10428

Hourly Observations for January 19, 2020

Temp ( °F °C ) Dew Point ( °F °C ) Humidity (%) Winds ( mph kmh ) Pressure ( in mb ) Visibility ( mi km ) Precip ( " mm )
12:52 am 00:52 Cloudy 42 5.6 39 3.9 89 89 SSW 16 26 29.77 1008 10 16.0934 0 0
1:52 am 01:52 Cloudy 43 6.1 40 4.4 89 89 SSW 10 17 29.75 1007 10 16.0934 0 0
2:52 am 02:52 Cloudy 43 6.1 40 4.4 89 89 NW 8 13 29.74 1007 10 16.0934 0 0
3:52 am 03:52 Cloudy 44 6.7 41 5 89 89 Calm 29.74 1007 10 16.0934 0 0
4:52 am 04:52 Cloudy 43 6.1 41 5 93 93 S 7 11 29.74 1007 10 16.0934 0.001 0.001
5:41 am 05:41 Cloudy 43 6.1 41 5 93 93 N 3 6 29.77 1008 10 16.0934 0 0
5:52 am 05:52 Cloudy 43 6.1 41 5 93 93 E 3 6 29.77 1008 10 16.0934 0 0
6:52 am 06:52 Mostly Cloudy 42 5.6 40 4.4 92 92 Calm 29.79 1009 10 16.0934 0 0
7:52 am 07:52 Mostly Cloudy 43 6.1 38 3.3 82 82 Calm 29.81 1010 10 16.0934 0 0
8:52 am 08:52 Mostly Cloudy 43 6.1 31 -0.6 63 63 NW 8 13 29.84 1011 10 16.0934 0 0
9:52 am 09:52 Mostly Cloudy 44 6.7 29 -1.7 55 55 NNW 13 20 29.88 1012 10 16.0934 0 0
10:52 am 10:52 Mostly Cloudy 45 7.2 26 -3.3 48 48 NW 21 33 29.91 1013 10 16.0934 0 0
11:52 am 11:52 Mostly Cloudy 45 7.2 25 -3.9 46 46 NW 24 39 29.91 1013 10 16.0934 0 0
12:52 pm 12:52 Partly Cloudy 44 6.7 23 -5 43 43 NW 23 37 29.91 1013 10 16.0934 0 0
1:52 pm 13:52 Partly Cloudy 42 5.6 21 -6.1 43 43 NNW 23 37 29.92 1013 10 16.0934 0 0
2:52 pm 14:52 Mostly Cloudy 38 3.3 18 -7.8 44 44 NNW 24 39 29.96 1015 10 16.0934 0 0
3:52 pm 15:52 Mostly Cloudy 38 3.3 18 -7.8 44 44 NNW 21 33 30 1016 10 16.0934 0 0
4:52 pm 16:52 Mostly Cloudy 36 2.2 20 -6.7 52 52 NW 18 30 30.04 1017 10 16.0934 0 0
5:52 pm 17:52 Mostly Cloudy 34 1.1 20 -6.7 56 56 NW 12 19 30.06 1018 10 16.0934 0 0
6:52 pm 18:52 Partly Cloudy 34 1.1 16 -8.9 48 48 NW 15 24 30.09 1019 10 16.0934 0 0
7:52 pm 19:52 Mostly Clear 33 0.6 16 -8.9 49 49 NW 20 31 30.1 1019 10 16.0934 0 0
8:52 pm 20:52 Partly Cloudy 32 0 16 -8.9 52 52 NW 14 22 30.14 1021 10 16.0934 0 0
9:52 pm 21:52 Mostly Cloudy 31 -0.6 14 -10 49 49 NW 14 22 30.16 1022 10 16.0934 0 0
10:52 pm 22:52 Mostly Clear 29 -1.7 13 -10.6 51 51 NW 16 26 30.18 1022 10 16.0934 0 0
11:52 pm 23:52 Clear 28 -2.2 11 -11.7 49 49 NW 20 31 30.2 1023 10 16.0934 0 0

Powered by AerisWeather